STARLINK-2355, 47895

Orbit data source: Space-Track

STARLINK-2355, 47895 is a payload satellite owned by SpaceX/Seattle (US) in LEO that was launched on Sun, 14 Mar 2021 UTC via an FALCON 9 launch vehicle from the Air Force Eastern Test Range (AFETR). Payload-class satellites include a variety of spacecraft equipped with specific instruments for various scientific and technological missions. These include communications satellites like Starlink; space stations such as the ISS; scientific satellites like the Hubble; Earth observation satellites from companies like Planet Labs, Umbra, and HawkEye 360; GPS; miniature CubeSats for education and research; and military/defense satellites.

Loading next visibility...
Identifier
47895, 2021-021AM
Orbit
LEO
Country
Flag of USUS
Related business
Manufacturer
SpaceX/Seattle
Mission
Operational Commercial Communications
Bus & Motor
STARLINK, Unknown motor
Mass
260 kg wet, ~248 kg dry
Launch date (UTC)
2021-03-14 (5 years ago)
Launch vehicle
FALCON 9
Launch site
Air Force Eastern Test Range (AFETR)
Object type
Payload
Rocket body
Debris
Shape & HBR
Box + 1 Pan, 10.1 m
Radar Cross Section
13.562 m², Large (>1 m²)

Expand to show TLE details & history
Last TLE update: 2 days ago

TLE from 2 days ago
0 STARLINK-2355
1 47895U 21021AM  26171.36110049  .00002313  00000-0  86247-4 0  9990
2 47895  53.1581 150.5069 0001340 130.0060 230.1059 15.31709410291959
Epoch: 2026-06-20T08:39Z
TLE epoch observation values (Epoch: 2026-06-20T08:39:59.082Z)
Latitude
-0.00003°
Longitude
111.93387°
Altitude
472.201 km
Speed
7.631 km/s
True Right ascension
10h 02m 01s
True Declination
0° 00' 00"
Sunlit
Object was in daylight at epoch
Visualization orbit readout
Latitude
Unknown
Longitude
Unknown
Altitude
Unknown
Speed
Unknown
Apparent Right ascension
Unknown
Apparent Declination
Unknown
Sunlit
N/A
Visualization observer readout
Local Sidereal Time
21:27:52
Azimuth
Unknown
Elevation
Unknown
Doppler factor
Unknown
Orbital elements
Apogee altitude
471.887 km
Perigee altitude
470.051 km
Semi-major axis
6,849.106 km
Eccentricity
0.00013
Inclination
53.1581°
RAAN
150.5069°
Arg. of periapsis
130.006°
True anomaly
230.09412°
Mean anomaly
230.1059°
Eccentric anomaly
230.10001°
Mean motion
3.82906 °/min
Orbital period
94.02 mins
BSTAR
0.000086247
Loading maneuver chart data...
Computing Atmospheric mass density...

Documentation

Showing up to 5 results
|